Lid_Strength_Index
8 8 9 9 9 9 9 9 9 9 8 8 8 8 7 7 7 7 7 7 7 6
9 9 10 10 10 10 10 9 10 10 10 9 9 9 9 9 9 9 9 9 9 8
10 10 11 11 11 11 11 11 11 11 11 11 10 10 10 10 10 11 11 10 10 9
11 11 11 12 12 12 12 12 12 12 12 11 11 11 12 12 12 12 12 12 11 11
12 12 13 13 13 13 13 13 12 12 12 12 12 13 13 13 12 13 13 12 12 12
14 14 14 14 14 13 13 13 13 13 13 13 13 13 13 13 13 13 13 13 13 12
14 14 14 14 14 14 14 14 14 14 14 14 14 14 13 13 13 13 13 13 13 13
15 14 14 15 15 15 16 15 15 15 15 15 15 14 14 14 14 14 14 13 13 13
15 15 16 16 16 16 16 16 16 16 17 16 15 13 12 13 14 13 14 14 14 13
16 16 16 17 17 17 17 17 17 17 17 16 16 13 12 12 13 13 13 13 13 13
17 17 18 18 18 18 18 18 18 17 17 17 16 13 12 12 13 13 13 13 12 12
18 19 20 21 20 19 19 19 19 17 19 19 17 14 12 13 13 13 13 12 11 11
19 21 22 20 21 20 21 19 18 18 19 19 19 15 13 12 13 13 12 11 11 10
21 22 22 22 22 24 24 21 24 22 22 21 19 17 12 11 12 12 11 11 11 10